Regional Weather Roundup
Issued by NWS

Home | Current Version | Previous Version | Text Only | Print | Product List | Glossary Off
Versions: 1 2 3 4 5 6 7 8 9 10 11 12 13 14 15 16 17 18 19 20 21 22 23 24 25 26 27 28 29 30 31 32 33 34 35 36 37 38 39 40 41 42 43 44 45 46 47 48 49 50

000
ASUS44 KMEG 250710
RWRTN
TENNESSEE HOURLY STATE WEATHER ROUNDUP
NATIONAL WEATHER SERVICE MEMPHIS TN
100 AM CST THU DEC 25 2014

TNZ002-004-019-021-049-052-054-088>092-250800-
WEST TENNESSEE

CITY           SKY/WX    TMP DP  RH WIND       PRES   REMARKS
MEMPHIS INTL   CLOUDY    43  35  73 W7        30.01S
NWS MEMPHIS      N/A     42 N/A N/A MISG        N/A
JACKSON        CLOUDY    39  34  82 W6        29.99R WCI  35
DYERSBURG      CLOUDY    39  25  56 W6        30.00R WCI  35
UNION CITY     CLOUDY    36  36 100 SW5       29.96R WCI  32
PARIS          MOCLDY    34  32  93 SW6       29.96R WCI  29
HUNTINGDON     CLEAR     34  32  92 W3        29.98R
LEXINGTON      CLEAR     37  34  87 W3        29.97R
SAVANNAH       CLOUDY    39  37  93 SW3       30.01R
$$

TNZ008-025-027-028-033-062-065-066-250800-
NORTH MIDDLE TENNESSEE

CITY           SKY/WX    TMP DP  RH WIND       PRES   REMARKS
NASHVILLE      CLOUDY    41  36  81 VRB7      29.96R
CLARKSVILLE    CLOUDY    40  35  83 W10       29.94R WCI  33
SMYRNA         MOCLDY    40  36  86 W9        29.97R WCI  34
COOKEVILLE     CLOUDY    39  36  87 W6        29.92R WCI  35
CROSSVILLE     CLOUDY    38  33  82 W9        29.90R WCI  31
$$

TNZ061-075-076-078-094-096-097-250800-
SOUTH MIDDLE TENNESSEE

CITY           SKY/WX    TMP DP  RH WIND       PRES   REMARKS
FAYETTEVILLE   CLOUDY    39  36  87 MISG      29.97R
TULLAHOMA      CLOUDY    37  34  87 W7        29.96R WCI  32
WINCHESTER     CLOUDY    39  36  87 W10       29.96R WCI  32
MCMINNVILLE    CLOUDY    39  37  93 CALM      29.94R
COLUMBIA       CLOUDY    39  39 100 SW8       29.95R WCI  34
SHELBYVILLE    CLOUDY    41  37  87 W8        29.97R
$$

TNZ017-018-042-046-047-250800-
NORTHEAST TENNESSEE

CITY           SKY/WX    TMP DP  RH WIND       PRES   REMARKS
TRI CITIES     CLOUDY    44  39  82 SW10      29.84R
ELIZABETHTON   CLOUDY    41  36  81 W7        29.83R
$$

TNZ012-013-036-069-073-074-250800-
CENTRAL EAST TENNESSEE

CITY           SKY/WX    TMP DP  RH WIND       PRES   REMARKS
KNOXVILLE      MOCLDY    41  37  86 SW7       29.90R
OAK RIDGE      CLOUDY    43  36  76 VRB5      29.92R
GATLINBURG     CLOUDY    43  37  81 W7        29.88R
MORRISTOWN     PTSUNNY   43  39  87 W10       29.86S
$$

TNZ083-085-099-250800-
SOUTHEAST TENNESSEE

CITY           SKY/WX    TMP DP  RH WIND       PRES   REMARKS
CHATTANOOGA    CLOUDY    44  34  67 SW7       29.96R
$$

SKY/WX REPORTED AS FAIR MEANS FEW OR NO CLOUDS BELOW
12 THOUSAND FEET.




USA.gov is the U.S. government's official web portal to all federal, state and local government web resources and services.